Regional Weather Roundup
Issued by NWS

Home | Current Version | Previous Version | Text Only | Print | Product List | Glossary On
Versions: 1 2 3 4 5 6 7 8 9 10 11 12 13 14 15 16 17 18 19 20 21 22 23 24 25 26 27 28 29 30 31 32 33 34 35 36 37 38 39 40 41 42 43 44 45 46 47 48 49 50
363
ASUS45 KBOU 101907
RWRCO

WEATHER ROUNDUP FOR COLORADO
NATIONAL WEATHER SERVICE DENVER/BOULDER CO
1200 PM MST WED FEB 10 2016

NOTE: "FAIR" INDICATES FEW OR NO CLOUDS BELOW 12000 FEET WITH NO
SIGNIFICANT WEATHER AND/OR OBSTRUCTIONS TO VISIBILITY.

COZ001>005-013-030-031-102000-
...NORTHWEST COLORADO...

CITY           SKY/WX    TMP DP  RH WIND       PRES   REMARKS
CRAIG          CLOUDY    20  14  77 SW5       30.40F WCI  13
HAYDEN         CLOUDY    25  14  63 SE5       30.39F WCI  19
MEEKER         SUNNY     30  15  53 CALM      30.39F
MOUNT WERNER   NOT AVBL
STEAMBOAT SPGS CLOUDY    22  17  81 CALM      30.39F
WALDEN         SUNNY     34  18  51 SE8       30.36F WCI  27
$$

COZ006>008-011-102000-
...WEST CENTRAL VALLEYS...

CITY           SKY/WX    TMP DP  RH WIND       PRES   REMARKS
GRAND JUNCTION SUNNY     35  23  61 N5        30.46F WCI  31
MONTROSE       SUNNY     40  21  46 NW5       30.45F
EAGLE          SUNNY     28  16  59 CALM      30.47F
RIFLE          SUNNY     34  18  52 CALM      30.44F
DELTA          SUNNY     42  21  43 CALM      30.45F
NUCLA          SUNNY     37  21  52 CALM      30.48F
$$

COZ017>023-064>068-102000-
...SOUTHWEST COLORADO...

CITY           SKY/WX    TMP DP  RH WIND       PRES   REMARKS
DURANGO        SUNNY     37  22  54 NE6       30.44F
CORTEZ         SUNNY     43  21  41 S3        30.46F
PAGOSA SPRINGS SUNNY     47   6  19 S3        30.44F
TELLURIDE      SUNNY     48   1  14 CALM      30.50F
WOLF CREEK PAS SUNNY     37  -4  17 W6        30.59F
$$

COZ009-010-012-014-032>034-037-058>063-102000-
...CENTRAL COLORADO...

CITY           SKY/WX    TMP DP  RH WIND       PRES   REMARKS
ASPEN          SUNNY     38  14  37 N7        30.40F
BUENA VISTA    SUNNY     46  13  25 SE3       30.37F
COPPER MTN     SUNNY     37   0  20 W20G30    30.50F
BERTHOUD PASS  FAIR      28  18  64 NW39G52   30.43S WCI  11
COTTONWOOD PAS SUNNY     48 -17   6 W22G32    30.42F
GUNNISON       CLOUDY     1   0  92 SE3       30.59F
KREMMLING      SNOW     N/A N/A N/A CALM      30.49F VSB 1/4
LEADVILLE      SUNNY     43   0  16 N9G17     30.43F
MONARCH PASS   SUNNY     30   3  31 W29G35    30.61F WCI  15
SALIDA         NOT AVBL
SUNLIGHT       SUNNY     41  14  33 CALM      30.53F
WILKERSON PASS CLOUDY    37   0  20 W7G17     30.47F
$$

COZ069>075-102000-
...SAN LUIS VALLEY/SANGRE DE CRISTO MOUNTAINS...

CITY           SKY/WX    TMP DP  RH WIND       PRES   REMARKS
ALAMOSA        SUNNY     41  17  38 CALM      30.44F
LA VETA PASS   SUNNY     43   7  22 S9G18     30.44F
SAGUACHE       SUNNY     41  16  36 SE5       30.45F
$$

COZ035-036-038>040-102000-
...NORTHERN COLORADO FRONT RANGE...

CITY           SKY/WX    TMP DP  RH WIND       PRES   REMARKS
DENVER INTL AP MOSUNNY   63  20  19 W15       30.13F
DMNS CITY PARK   N/A     65   6   9 W18G29    30.13F
AURORA         NOT AVBL
FRONT RANGE AP MOSUNNY   59  21  23 MISG      30.15F
ERIE MUNI ARPT SUNNY     61  11  14 W13G26    30.13F
BOULDER MUN AP SUNNY     64  12  13 W21G31    30.13F
CENTENNIAL     MOSUNNY   61   7  11 W8        30.17F
BROOMFIELD     MOSUNNY   66  12  12 W23G33    30.16F
FORT COLLINS   SUNNY     57  25  28 E5        30.10F
LONGMONT       SUNNY     64  19  18 SW7       30.13F
$$

COZ041-046-047-076>085-087-088-102000-
...PIKES PEAK/PALMER DIVIDE AND SOUTHERN FOOTHILLS...

CITY           SKY/WX    TMP DP  RH WIND       PRES   REMARKS
COLO. SPRINGS  MOSUNNY   64  -2   7 NW5       30.22F
A. F. ACADEMY  NOT AVBL
SCHRIEVER AFB  NOT AVBL
ELLICOTT       SUNNY    N/A N/A N/A W6        30.21F
FALCON         NOT AVBL
FORT CARSON    NOT AVBL
LIMON          SUNNY     45  26  47 W12       30.15F
MONUMENT HILL  SUNNY     50  18  27 NW10      30.25F
TRINIDAD       SUNNY     70  -1   6 NW16      30.22F
$$

COZ042>045-048>051-090-091-102000-
...NORTHEAST COLORADO...

CITY           SKY/WX    TMP DP  RH WIND       PRES   REMARKS
GREELEY ARPT   SUNNY     54  30  40 SW9       30.10F
AKRON          SUNNY     49  28  44 W16       30.07F
BURLINGTON     SUNNY     51  25  36 W17       30.07F
WRAY           SUNNY     53  26  35 W14       30.05S
STERLING       SUNNY     59  32  36 NW10      30.04S
HOLYOKE        SUNNY     54  32  43 W10G17    30.03F
FORT MORGAN    SUNNY     54  28  37 W9        30.07F
$$

COZ086-089-092>099-102000-
...SOUTHEAST COLORADO...

CITY           SKY/WX    TMP DP  RH WIND       PRES   REMARKS
PUEBLO         SUNNY     73   7   7 W25G35    30.15F
LA JUNTA       SUNNY     68  20  16 W14       30.14F
LAMAR          SUNNY     66  22  18 W17G24    30.10F
SPRINGFIELD      N/A     72   9   8 MISG      30.13F
$$




USA.gov is the U.S. government's official web portal to all federal, state and local government web resources and services.